Simultaneous Nadir Overpasses (SNOs) Predictions

Prediction of SNOs between GOES-15 and METOP-A Satellite Orbit:

Table of predicted SNOs for the next 14.0 days since TLE Epoch: 2/24/2012
Index Date Time (GOES-15) GOES-15 Lat,Lon METOP-A Lat,Lon Distance(km) Time Diff (sec)
1 02/26/2012 06:41:33 0.01,-135.44 -0.61,-138.13 307.62 80
2 02/27/2012 06:23:34 0.01,-135.45 0.51,-133.14 262.53 80
3 02/28/2012 18:42:28 -0.01,-135.46 0.49,-137.71 256.11 80
4 02/29/2012 18:19:09 -0.01,-135.47 -0.63,-132.72 313.49 80
5 03/02/2012 06:38:10 0.02,-135.48 -0.41,-137.31 209.74 80
6 03/03/2012 06:20:12 0.02,-135.48 0.71,-132.32 359.57 80
7 03/04/2012 18:36:25 -0.02,-135.48 0.30,-136.89 160.19 80
8 03/05/2012 18:18:27 -0.01,-135.48 -0.81,-131.90 408.77 80
9 03/07/2012 06:34:48 0.01,-135.48 -0.22,-136.49 115.34 80
10 03/08/2012 06:16:50 0.01,-135.48 0.90,-131.50 453.33 80




NCC Satellite Simultaneous Nadir Overpasses (SNOs) Prediction Service
